Weather History for KABI - November, 2011

Change the Weather History Date:

Monday, November 14, 2011

  Actual Average Record
Temperature  
Mean Temperature 70 °F 55 °F  
Max Temperature 81 °F 67 °F 84 °F (1989)
Min Temperature 58 °F 44 °F 14 °F (1976)
Degree Days  
Heating Degree Days 0 10  
Month to date heating degree days 97 112  
Since 1 July heating degree days 173 216  
Cooling Degree Days 5 0  
Month to date cooling degree days 27 15  
Year to date cooling degree days 3514 2404  
Growing Degree Days 20 (Base 50)    
Moisture  
Dew Point 48 °F    
Average Humidity 49    
Maximum Humidity 67    
Minimum Humidity 30    
Precipitation  
Precipitation 0.00 in 0.05 in 1.54 in (1954)
Month to date precipitation 0.01 0.78  
Year to date precipitation 14.73 22.96  
Sea Level Pressure  
Sea Level Pressure 29.77 in    
Wind  
Wind Speed 7 mph (South)    
Max Wind Speed 18 mph    
Max Gust Speed 24 mph    
Visibility 10 miles    
Events      
T = Trace of Precipitation, MM = Missing Value Source: NWS Daily Summary

Daily Weather History Graph

Daily Weather History Graph

Search for Another Location

Airport or City:

Trip Planner

Search our weather history database for the weather conditions in past years. The results will help you decide how hot, cold, wet, or windy it might be!

Date:

Astronomy

Nov. 14, 2011 Rise Set
Actual Time 7:07 AM CST 5:38 PM CST
Civil Twilight 6:41 AM CST 6:04 PM CST
Nautical Twilight 6:11 AM CST 6:34 PM CST
Astronomical Twilight 5:42 AM CST 7:03 PM CST
Moon 8:51 PM CST (11/14) 10:22 AM CST (11/14)
Length of Visible Light 11h 23m
Length of Day
10h 31m
Waning Gibbous, 86% of the Moon is Illuminated
Nov 14
Waning Gibbous
Nov 18
Last Quarter
Nov 25
New
Dec 2
First Quarter
Dec 10
Full

Hourly Weather History & Observations

Time (CST) Temp. Dew Point Humidity Pressure Visibility Wind Dir Wind Speed Gust Speed Precip Events Conditions
12:52 AM 66.0 °F 45.0 °F 47% 29.77 in 10.0 mi South 11.5 mph - N/A   Clear
1:52 AM 64.9 °F 45.0 °F 48% 29.77 in 10.0 mi SSW 13.8 mph - N/A   Clear
2:52 AM 63.0 °F 46.0 °F 54% 29.77 in 10.0 mi SSW 8.1 mph - N/A   Clear
3:52 AM 61.0 °F 46.9 °F 60% 29.77 in 10.0 mi SSW 4.6 mph - N/A   Clear
4:52 AM 61.0 °F 48.0 °F 62% 29.78 in 10.0 mi SSE 3.5 mph - N/A   Clear
5:52 AM 61.0 °F 48.9 °F 64% 29.79 in 10.0 mi SW 6.9 mph - N/A   Clear
6:52 AM 60.1 °F 48.9 °F 67% 29.81 in 10.0 mi South 9.2 mph - N/A   Clear
7:52 AM 62.1 °F 51.1 °F 67% 29.83 in 10.0 mi South 6.9 mph - N/A   Clear
8:52 AM 66.9 °F 53.1 °F 61% 29.83 in 10.0 mi SSW 9.2 mph - N/A   Clear
9:52 AM 71.1 °F 54.0 °F 55% 29.82 in 10.0 mi SSW 12.7 mph - N/A   Clear
10:52 AM 73.9 °F 54.0 °F 50% 29.83 in 10.0 mi SW 8.1 mph - N/A   Clear
11:52 AM 81.0 °F 50.0 °F 34% 29.81 in 10.0 mi NNW 13.8 mph - N/A   Mostly Cloudy
12:52 PM 79.0 °F 44.1 °F 29% 29.78 in 10.0 mi NNW 13.8 mph - N/A   Clear
1:52 PM 77.0 °F 44.1 °F 31% 29.75 in 10.0 mi North 8.1 mph - N/A   Clear
2:52 PM 75.9 °F 44.1 °F 32% 29.73 in 10.0 mi Calm Calm - N/A   Clear
3:52 PM 77.0 °F 44.1 °F 31% 29.72 in 10.0 mi North 6.9 mph - N/A   Clear
4:52 PM 75.0 °F 45.0 °F 34% 29.72 in 10.0 mi NNE 3.5 mph - N/A   Clear
5:52 PM 73.0 °F 46.0 °F 38% 29.72 in 10.0 mi ENE 3.5 mph - N/A   Clear
6:52 PM 71.1 °F 46.0 °F 41% 29.73 in 10.0 mi NE 5.8 mph - N/A   Clear
7:52 PM 69.1 °F 46.0 °F 44% 29.75 in 10.0 mi NE 5.8 mph - N/A   Mostly Cloudy
8:52 PM 69.1 °F 48.0 °F 47% 29.75 in 10.0 mi ESE 9.2 mph - N/A   Overcast
9:52 PM 64.9 °F 52.0 °F 63% 29.76 in 10.0 mi SSW 3.5 mph - N/A   Mostly Cloudy
10:52 PM 64.0 °F 50.0 °F 60% 29.76 in 10.0 mi South 3.5 mph - N/A   Mostly Cloudy
11:52 PM 64.0 °F 53.1 °F 67% 29.74 in 10.0 mi Calm Calm - N/A   Scattered Clouds